Hourly Data Report for September 07, 2017

All times are specified in Local Standard Time (LST). Add 1 hour to adjust for Daylight Saving Time where and when it is observed.

QIKIQTARJUAQ A
NUNAVUT

67°32'48.000" N
64°01'54.000" W
5.50 m
2400577
YVM

Download Data

Hourly Data (September 2017)
Hourly Data Report for September 7, 2017
Temp Definition
°C
Dew Point Temp Definition
°C
Rel Hum Definition
%
Wind Dir Definition
10's deg

Wind Spd Definition
km/h
Visibility Definition
km
Stn Press Definition
kPa
Hmdx Definition


Wind Chill Definition


Weather Definition


TIME
00:00 Legend Double Dagger 0.9 -0.6 90   0 16.1 101.28     LegendNANA
01:00 Legend Double Dagger 0.5 -0.5 93   0 16.1 101.33     LegendNANA
02:00 Legend Double Dagger 0.8 -0.5 91   0 16.1 101.36     LegendNANA
03:00 Legend Double Dagger 1.0 -0.3 91 21 4 16.1 101.39     LegendNANA
04:00 Legend Double Dagger 0.7 -0.6 91 22 8 16.1 101.41     LegendNANA
05:00 Legend Double Dagger 1.1 0.1 93 19 5 16.1 101.45     LegendNANA
06:00 Legend Double Dagger 1.5 -0.4 87 18 4 16.1 101.49     LegendNANA
07:00 Legend Double Dagger 1.9 0.2 89 21 5 16.1 101.52     LegendNANA
08:00 Legend Double Dagger 2.3 -0.3 83 20 5 16.1 101.54     LegendNANA
09:00 Legend Double Dagger 3.4 -0.1 78 29 4 16.1 101.55     LegendNANA
10:00 Legend Double Dagger 3.7 0.2 78 25 5 16.1 101.55     LegendNANA
11:00 Legend Double Dagger 3.2 0.4 82 34 4 16.1 101.55     LegendNANA
12:00 Legend Double Dagger 4.1 0.1 75 22 11 16.1 101.55     LegendNANA
13:00 Legend Double Dagger 4.8 -0.1 71 23 11 16.1 101.55     LegendNANA
14:00 Legend Double Dagger 4.6 0.0 72 24 13 16.1 101.54     LegendNANA
15:00 Legend Double Dagger 4.0 0.1 76 24 18 16.1 101.55     LegendNANA
16:00 Legend Double Dagger 3.5 -0.1 77 22 18 16.1 101.54     LegendNANA
17:00 Legend Double Dagger 3.0 -0.5 78 22 21 16.1 101.54     LegendNANA
18:00 Legend Double Dagger 2.2 -1.1 79 21 22 16.1 101.51     LegendNANA
19:00 Legend Double Dagger 2.2 -0.9 80 16 5 16.1 101.49     LegendNANA
20:00 Legend Double Dagger 1.0 -0.2 92 22 13 16.1 101.44     LegendNANA
21:00 Legend Double Dagger 0.8 -0.4 92 20 13 16.1 101.39     LegendNANA
22:00 Legend Double Dagger 0.4 -0.2 96 20 11 16.1 101.33     LegendNANA
23:00 Legend Double Dagger 0.2 -0.7 94 19 8 16.1 101.28     LegendNANA

Notes on Data Quality.

Legend

  • E = Estimated
  • M = Missing
  • NA = Not Available
  • ‡ = Partner data that is not subject to review by the National Climate Archives
Date modified: